View from above orbital plane
|
View from above satellite
|
Ground track
|
The orbit data is extracted from the following two-line orbital elements,
1 25774U 99031E 21018.82383434 -.00000128 00000-0 88906-6 0 9993
2 25774 51.5297 145.1296 0374890 232.6081 294.9983 13.46462052 63115
Epoch (UTC): | 18 January 2021 19:46:19 |
Eccentricity: | 0.0374890 |
inclination: | 51.5297° |
perigee height: | 805 km |
apogee height: | 1365 km |
right ascension of ascending node: | 145.1296° |
argument of perigee: | 232.6081° |
revolutions per day: | 13.46462052 |
mean anomaly at epoch: | 294.9983° |
orbit number at epoch: | 6311 |
The dashed part of the orbit path shows where the satellite is in the earth's shadow,
|
|